DW3153 Weather Reports


time (UTC)temp
F
wind
direction
speed
knots
gust
knots
rain 1hr
in
rain 24hr
in
rain mn
in
humidity
%
barometer
mb
20260503194242 64 142 0.9 5.2 0.00 0.00 0.00 67 1013.8
20260503193226 64 122 0.9 5.2 0.00 0.00 0.00 67 1013.8
20260503192209 63 49 0.9 5.2 0.00 0.00 0.00 68 1013.8
20260503191233 63 141 0.9 0.9 0.00 0.00 0.00 67 1013.8
20260503190235 63 129 0.9 1.7 0.00 0.00 0.00 65 1013.8
20260503185236 64 149 0.0 3.5 0.00 0.00 0.00 63 1013.7
20260503183118 63 143 0.0 2.6 0.00 0.00 0.00 65 1013.7
20260503182106 63 146 0.9 3.5 0.00 0.00 0.00 68 1013.7
20260503173545 62 107 0.9 3.5 0.00 0.00 0.00 71 1013.6
20260503172550 61 30 0.0 3.5 0.00 0.00 0.00 73 1013.6
20260503170511 60 158 0.0 1.7 0.00 0.00 0.00 75 1013.5
20260503130733 54 167 0.0 0.0 0.00 0.00 0.00 81 1011.3
20260503110341 52 143 0.0 0.0 0.00 0.00 0.00 86 1011.4
20260503100155 53 143 0.0 0.0 0.00 0.00 0.00 84 1011.3
20260503080855 54 149 0.0 0.0 0.00 0.00 0.00 83 1012.2
20260503072755 54 158 0.0 0.0 0.00 0.00 0.00 83 1012.1
20260503071737 54 158 0.0 0.0 0.00 0.00 0.00 83 1012.1
20260503070801 54 158 0.0 0.0 0.00 0.00 0.00 83 1012.1
20260503053604 55 162 0.0 0.0 0.00 0.00 0.00 82 1012.4
20260503052550 55 162 0.0 0.9 0.00 0.00 0.00 81 1012.5
20260503050433 55 168 0.0 2.6 0.00 0.00 0.00 80 1012.5
20260503045413 55 151 0.0 0.9 0.00 0.00 0.00 80 1012.6
20260503044436 55 155 0.0 0.0 0.00 0.00 0.00 80 1012.5
20260503041227 55 155 0.0 0.0 0.00 0.00 0.00 81 1012.4
20260503040243 55 155 0.0 0.0 0.00 0.00 0.00 81 1012.3
20260503034032 55 140 0.0 0.0 0.00 0.00 0.00 80 1012.1
20260503033050 55 143 0.0 0.0 0.00 0.00 0.00 80 1012.0
20260503032032 55 139 0.0 3.5 0.00 0.00 0.00 80 1011.9
20260503031003 55 156 0.0 0.9 0.00 0.00 0.00 80 1011.7
20260503030018 56 141 0.0 0.9 0.00 0.00 0.00 80 1011.7
20260503023845 56 151 0.0 0.9 0.00 0.00 0.00 80 1011.7
20260503022828 56 144 0.0 3.5 0.00 0.00 0.00 80 1011.6
20260503021832 56 163 0.0 3.5 0.00 0.00 0.00 79 1011.6
20260503020814 57 148 0.0 2.6 0.00 0.00 0.00 79 1011.7
20260503015812 57 133 0.0 2.6 0.00 0.00 0.00 78 1011.8
20260503014748 57 176 0.0 2.6 0.00 0.00 0.00 78 1011.7
20260503013753 57 148 0.9 3.5 0.00 0.00 0.00 77 1011.8
20260503012813 58 112 0.9 3.5 0.00 0.00 0.00 76 1011.9
20260503011804 58 141 0.9 2.6 0.00 0.00 0.00 76 1011.9
20260503010745 59 186 0.9 7.8 0.00 0.00 0.00 76 1011.9
20260503004646 59 124 0.9 8.7 0.00 0.00 0.00 75 1012.0
20260503003652 59 157 0.9 8.7 0.00 0.00 0.00 74 1012.1
20260503000448 59 113 0.9 8.7 0.00 0.00 0.00 73 1012.2
20260502235430 60 153 0.9 5.2 0.00 0.00 0.00 72 1012.1
20260502234424 60 146 0.9 3.5 0.00 0.00 0.00 72 1012.2
20260502233356 60 139 1.7 5.2 0.00 0.00 0.00 72 1012.2
20260502232333 60 120 0.9 9.6 0.00 0.00 0.00 72 1012.2
20260502230244 61 136 1.7 5.2 0.00 0.00 0.00 69 1012.4
20260502224116 62 72 1.7 7.0 0.00 0.00 0.00 68 1012.7
20260502223052 63 110 2.6 7.8 0.00 0.00 0.00 68 1012.8
20260502222036 63 149 2.6 8.7 0.00 0.00 0.00 69 1013.0
20260502221053 63 94 2.6 11.3 0.00 0.00 0.00 69 1013.1
20260502220022 63 96 3.5 11.3 0.00 0.00 0.00 70 1013.2
20260502214956 63 60 2.6 8.7 0.00 0.00 0.00 69 1013.1
20260502213947 63 161 2.6 11.3 0.00 0.00 0.00 68 1013.3
20260502212959 63 21 2.6 11.3 0.00 0.00 0.00 69 1013.4
20260502210809 62 276 2.6 10.4 0.00 0.00 0.00 71 1013.5
20260502205739 62 116 1.7 6.1 0.00 0.00 0.00 71 1013.9
20260502204732 62 37 0.9 9.6 0.00 0.00 0.00 72 1013.9
20260502203719 60 278 2.6 9.6 0.00 0.00 0.00 75 1013.9
20260502202650 60 142 1.7 7.0 0.00 0.00 0.00 77 1014.1